{"data":{"norad_id":69365,"intl_designator":"2026-123N","name":"STARLINK-37436","alt_names":[],"object_type":"PAYLOAD","status":"ACTIVE","operator":null,"country":"US","launch_date":"2026-06-04","launch_site_code":"AFETR","launch_vehicle":null,"mission":null,"orbit_class":"UNKNOWN","rcs_meters":null,"size_class":null,"mass_kg":null,"dimensions":null,"purposes":["comms"],"wikipedia_slug":null,"has_3d_model":false,"image_url":null,"decayed_at":null,"tle_current":{"epoch":"2026-09-19T22:09:57.217824Z","epoch_age_seconds":78901,"freshness":"FRESH","line1":"1 69365U 26123N   26262.92357891  .00008545  00000+0  26372-3 0  9999","line2":"2 69365  53.1608 144.2563 0001522  78.5921 281.5253 15.34402361 16788","mean_motion":15.34402361,"eccentricity":0.0001522,"inclination_deg":53.1608,"raan_deg":144.2563,"arg_perigee_deg":78.5921,"mean_anomaly_deg":281.5253,"bstar":0.00026372,"rev_number":1678,"period_min":93.847613676867,"perigee_km":461.65504801003,"apogee_km":463.73739764306,"semimajor_km":6840.8332228265,"source":"CELESTRAK","updated_at":"2026-09-20T09:00:44.166747Z"}}}